User: anonymous   Login
Location: Mentone
(34.5413°N, 85.5351°W)
Time: 16:45:31
(UTC-05:00)
Language:

Cosmos 2026 Rocket - Orbit

View from above orbital plane
View from above orbital plane
View from above satellite
View from above satellite

Ground track
Ground track

The orbit data is extracted from the following two-line orbital elements,

1 20046U 89042B   17265.94703073 -.00000029 +00000-0 -43682-4 0  9999
2 20046 082.9368 230.3313 0042668 152.7034 207.6380 13.78102669422516
Epoch (UTC): 22 September 2017 22:43:43
Eccentricity: 0.0042668
inclination: 82.9368°
perigee height: 939 km
apogee height: 1002 km
right ascension of ascending node: 230.3313°
argument of perigee: 152.7034°
revolutions per day: 13.78102669
mean anomaly at epoch: 207.6380°
orbit number at epoch: 42251

The dashed part of the orbit path shows where the satellite is in the earth's shadow,  

DLR